Regional Weather Roundup
Issued by NWS Sioux Falls, SD

Home | Current Version | Previous Version | Text Only | Print | Product List | Glossary On
Versions: 1 2 3 4 5 6 7 8 9 10 11 12 13 14 15 16 17 18 19 20 21 22 23 24 25 26 27 28 29 30 31 32 33 34 35 36 37 38 39 40 41 42 43 44 45 46 47 48 49 50
000
ASUS43 KFSD 180810
RWRFSD

WEATHER ROUNDUP FOR SE SOUTH DAKOTA/SW MINNESOTA/NW IOWA
NATIONAL WEATHER SERVICE SIOUX FALLS SD
300 AM CDT FRI AUG 18 2017

NOTE: "FAIR" INDICATES FEW OR NO CLOUDS BELOW 12,000 FEET WITH NO
SIGNIFICANT WEATHER AND OR OBSTRUCTIONS TO VISIBILITY.


SDZ038>040-050-052>070-180900-
SOUTHEAST SOUTH DAKOTA

CITY           SKY/WX    TMP DP  RH WIND       PRES   REMARKS
BROOKINGS      CLOUDY    63  55  75 S14       29.87F
CHAMBERLAIN    PTCLDY    62  61  98 CALM      29.92R
HURON          CLOUDY    62  58  86 SW3       29.91R
MADISON        FAIR      61  61 100 SE10      29.88F
MITCHELL       CLOUDY    64  60  87 S6        29.88R
SIOUX FALLS    LGT RAIN  64  63  96 E8        29.88F
WINNER         FAIR      62  59  90 S8        29.92F
YANKTON        LGT RAIN  62  58  86 E18       29.82F
$$

MNZ071-072-080-081-089-090-097-098-180900-
SOUTHWEST MINNESOTA

CITY           SKY/WX    TMP DP  RH WIND       PRES   REMARKS
FAIRMONT       PTCLDY    64  60  87 NW10      29.93R
JACKSON        CLOUDY    61  59  94 CALM      29.94F
LUVERNE        RAIN      63  59  88 CALM      29.93F
MARSHALL       MOCLDY    61  59  93 SW6       29.90S
MONTEVIDEO     CLOUDY    61  59  94 CALM      29.88F
PIPESTONE      LGT RAIN  63  61  94 SW7       29.92F
REDWOOD FALLS  CLOUDY    62  58  86 SW3       29.89F
TRACY          CLOUDY    63  60  91 SW5       29.91F
WINDOM         CLOUDY    59  57  94 CALM      29.91F
WORTHINGTON    LGT RAIN  61  58  90 SW6       29.94F
$$

IAZ001>003-012>014-020>022-031-032-NEZ013-014-SDZ071-180900-
NORTHWEST IOWA

CITY           SKY/WX    TMP DP  RH WIND       PRES   REMARKS
CHEROKEE       CLOUDY    61  61 100 SW5       29.94R
DENISON        MOCLDY    59  59 100 CALM      29.93F
ESTHERVILLE    LGT RAIN  60  60 100 NW6       29.92R
LE MARS        CLOUDY    64  63  94 NE10      29.93R
ORANGE CITY    HVY RAIN  64  63  94 N6        29.94S
SHELDON        CLOUDY    61  61 100 CALM      29.93S FOG
SIOUX CITY     CLOUDY    67  64  90 W8        29.92S
SPENCER        MOCLDY    59  58  96 W3        29.94S
STORM LAKE     PTCLDY    61  59  94 N9        29.95R
$$

ABBREVIATIONS USED IN REMARKS
   TC - TEMPERATURE IN CELSIUS
  WCI - WIND CHILL INDEX
   HX - HEAT INDEX
  VSB - VISIBILITY




USA.gov is the U.S. government's official web portal to all federal, state and local government web resources and services.